Vertical_Velocity
-1 -1 -1 -1 -1 -1 -1 -1 -1 -2 -2 -2 -2 -2 -2 -2 -3 -3 -4 -4 -4 -4 -3 -3 -2 -2 -1 -0 0 1 1 1 1 0 0 -0 -0 -0 -0 -0 -0 -0 -0 -0 0 -0 -1 -1 -2 -2 -1 -1 -1 -1 -2 -2 -2 -2 -2 -2 -2 -2 -2 -2 -2 -2 -3 -3 -3 -2 -1 -0 -1 -2 -3 -2 -2 -2 -3 -4 -4 -4 -4 -1 2 4
-1 -1 -1 -1 -1 -1 -2 -1 -2 -2 -2 -2 -2 -2 -2 -3 -3 -3 -3 -3 -3 -3 -3 -2 -2 -1 -1 0 1 1 1 1 1 1 0 -0 -0 -0 -0 -0 -0 0 0 1 0 -0 -1 -2 -2 -2 -2 -2 -2 -2 -2 -2 -2 -2 -2 -2 -2 -2 -2 -2 -2 -2 -2 -2 -3 -3 -2 -1 -2 -2 -3 -3 -3 -3 -3 -4 -4 -3 -3 -1 1 2
-1 -1 -1 -1 -1 -1 -2 -2 -2 -2 -2 -2 -2 -2 -2 -2 -2 -2 -2 -2 -2 -2 -2 -2 -1 -1 -0 1 1 1 1 1 1 1 0 -0 -0 -0 -0 -0 0 0 1 1 0 -0 -1 -2 -2 -2 -2 -3 -3 -3 -3 -3 -2 -2 -1 -1 -1 -1 -1 -1 -1 -2 -2 -2 -2 -2 -2 -1 -2 -2 -2 -2 -2 -2 -2 -3 -2 -2 -3 -1 0 -0
-1 -1 -1 -1 -1 -1 -1 -2 -2 -2 -1 -2 -2 -2 -2 -2 -2 -1 -1 -1 -0 -0 -0 -1 -1 -1 -0 0 1 1 1 1 1 1 -0 -0 -1 -1 -0 -0 0 1 1 1 0 -0 -1 -2 -3 -3 -3 -3 -3 -3 -2 -2 -2 -1 -1 -1 -0 -0 -1 -1 -1 -1 -2 -1 -1 -1 -1 -1 -1 -2 -1 -1 -1 -1 -2 -2 -1 -0 -1 -0 -1 -2
-1 -1 -1 -1 -1 -1 -1 -1 -2 -2 -2 -2 -2 -2 -2 -1 -1 0 1 1 1 0 0 -0 -1 -1 -1 -0 0 1 1 1 1 1 -0 -1 -1 -1 -0 0 1 1 1 1 0 -0 -1 -2 -3 -3 -3 -3 -3 -2 -2 -1 -1 -1 -0 -0 -0 -0 -0 -0 -1 -1 -1 -0 -0 -0 -0 -0 -1 -2 -1 -0 -0 -0 -1 -1 -1 -0 1 1 0 -2
-1 -1 -1 -1 -1 -1 -1 -2 -2 -2 -2 -2 -2 -2 -1 -1 0 1 1 1 1 1 0 -0 -1 -1 -1 -1 -0 0 1 1 1 1 -0 -0 -0 -0 0 0 1 1 1 1 0 -0 -1 -2 -3 -3 -3 -2 -2 -1 -1 -1 -0 -0 -0 -0 0 0 0 -0 -0 -1 -0 -0 -0 -0 -0 -0 -1 -1 -2 -1 -0 -0 -1 -1 -1 -0 1 1 0 -1
-0 -0 -1 -1 -1 -1 -1 -1 -2 -2 -3 -2 -2 -1 -1 0 1 1 1 1 0 0 0 -0 -0 -1 -1 -1 -0 -0 0 1 1 0 -0 -0 -0 1 1 1 1 1 1 1 -0 -1 -2 -2 -2 -2 -2 -2 -1 -1 -0 -0 -0 -0 -0 -0 0 0 0 -0 -0 -1 0 0 -0 -0 -0 -0 -1 -1 -1 -1 -1 -1 -1 -1 -1 -0 -0 -0 -1 -1
-1 -1 -1 -1 -2 -2 -2 -2 -2 -2 -3 -3 -2 -1 -0 0 1 1 1 1 -0 -0 -1 -0 0 -0 -1 -0 -0 0 -0 -0 -0 -0 -0 -1 -1 -0 1 1 1 1 1 0 0 -1 -1 -2 -2 -2 -2 -1 -0 -0 -0 -0 -0 -0 -0 -0 -0 -0 -0 -0 -0 -0 0 0 -0 -0 -0 -0 -1 -1 -1 -1 -1 -1 -1 -1 -1 -0 -1 -1 -1 -1
-1 -1 -1 -1 -1 -2 -2 -2 -2 -2 -2 -2 -1 -1 -2 -2 -1 -1 0 -0 -0 -1 -1 -1 -1 -1 -1 -1 -0 0 1 0 -0 -0 -0 -1 -1 -1 -1 -0 0 0 0 0 -0 -1 -2 -2 -1 -1 -1 -0 -0 -0 -0 -0 -1 -1 -0 -0 -0 -0 -1 -1 -1 -0 -0 -0 -0 -0 -0 -0 -0 -0 -1 -1 -1 -1 -1 -1 -1 -1 -1 -0 -1 -1
-1 -1 -1 -1 -1 -1 -2 -2 -2 -1 -1 -1 -1 -1 -2 -4 -4 -4 -2 -1 -1 -1 -1 -2 -3 -3 -3 -3 -2 -2 -1 1 1 1 0 -0 -0 -1 -0 -0 -0 -0 0 0 -0 -1 -1 -1 -1 -0 -0 -0 -0 -1 -1 -1 -1 -1 -1 -1 -1 -1 -1 -1 -1 -1 -1 -0 -0 -0 -1 -1 -1 -1 -1 -2 -2 -1 -0 -0 -0 -1 -0 -1 -1 -2
-1 -1 -1 -1 -1 -1 -1 -1 -1 -1 -1 -2 -3 -4 -5 -4 -5 -5 -6 -5 -4 -2 -2 -2 -4 -5 -6 -5 -5 -4 -4 -2 -1 1 1 0 -0 -1 -0 0 0 0 0 0 0 -0 -1 -1 -0 0 -0 -1 -1 -2 -2 -2 -2 -2 -2 -2 -2 -2 -1 -2 -1 -1 -1 -1 -1 -1 -1 -1 -1 -1 -1 -2 -2 -2 -0 -0 -0 0 0 -0 -1 -2
-1 -1 -1 -1 -1 -2 -1 -1 -1 -1 -2 -3 -3 -3 -3 -3 -3 -4 -5 -5 -6 -5 -4 -3 -4 -6 -8 -8 -7 -6 -4 -4 -4 -3 -1 -1 -2 -2 -2 -1 -0 -0 -0 -1 -1 -1 -0 -0 -0 -0 -1 -1 -2 -2 -3 -3 -2 -2 -2 -2 -2 -2 -2 -2 -2 -1 -1 -1 -1 -1 -1 -1 -1 -1 -1 -1 -2 -2 -1 -1 -0 0 0 1 0 -0
-1 -1 -1 -1 -1 -1 -2 -2 -2 -2 -3 -3 -3 -3 -2 -2 -2 -2 -3 -3 -4 -4 -5 -5 -5 -6 -7 -10 -10 -8 -6 -4 -4 -3 -3 -3 -3 -4 -4 -3 -2 -2 -2 -2 -2 -2 -1 -1 -1 -1 -2 -2 -3 -3 -2 -2 -2 -2 -2 -2 -2 -2 -2 -2 -2 -2 -1 -1 -0 -0 -1 -1 -1 -1 -1 -1 -2 -2 -2 -1 -1 -0 -1 -0 0 1
-1 -1 -1 -1 -1 -2 -2 -2 -2 -2 -2 -2 -2 -2 -2 -2 -2 -2 -2 -2 -2 -2 -3 -5 -6 -6 -6 -5 -6 -8 -8 -7 -6 -4 -2 -2 -3 -4 -5 -4 -4 -3 -2 -3 -3 -2 -1 -1 -2 -2 -2 -2 -2 -2 -2 -2 -2 -2 -2 -2 -2 -2 -2 -2 -2 -2 -2 -1 -1 -1 -0 -1 -1 -1 -1 -1 -2 -2 -2 -1 -1 -1 -1 -1 -0 -0
-1 -1 -1 -2 -2 -2 -2 -2 -2 -2 -2 -2 -2 -2 -2 -3 -2 -2 -2 -2 -2 -2 -3 -4 -5 -5 -4 -4 -3 -4 -5 -6 -6 -5 -3 -1 -2 -4 -5 -5 -5 -4 -3 -4 -3 -2 -1 -1 -2 -1 -1 -1 -1 -1 -2 -2 -2 -2 -2 -2 -2 -2 -2 -2 -2 -2 -2 -2 -1 -1 -1 -1 -1 -1 -1 -1 -1 -2 -1 -1 -1 -1 -0 -0 -1 -0
-2 -2 -2 -2 -2 -2 -2 -2 -2 -2 -2 -2 -2 -2 -3 -2 -2 -2 -2 -2 -3 -4 -5 -6 -6 -5 -1 -1 -2 -4 -3 -4 -5 -5 -5 -3 -2 -3 -4 -6 -6 -6 -4 -3 -3 -2 -2 -1 -0 -0 -0 -0 -1 -1 -1 -2 -2 -2 -2 -2 -2 -2 -2 -2 -2 -2 -2 -2 -2 -1 -1 -1 -1 -1 -1 -1 -1 -1 -1 -1 -1 -0 0 1 -0 -1
-2 -2 -2 -2 -2 -2 -2 -2 -2 -2 -2 -2 -2 -2 -2 -2 -2 -2 -2 -3 -4 -4 -5 -6 -7 -7 -6 -2 1 1 -3 -4 -4 -5 -6 -5 -4 -3 -3 -5 -6 -5 -3 -2 -2 -2 -2 -0 0 1 0 -0 -0 -1 -1 -2 -2 -2 -2 -2 -2 -2 -2 -2 -2 -2 -2 -2 -2 -2 -2 -2 -1 -1 -1 -1 -1 -1 -1 -0 -0 0 0 0 -0 -1
-2 -2 -2 -2 -2 -2 -2 -2 -2 -2 -2 -2 -1 -1 -1 -1 -2 -2 -2 -3 -3 -3 -3 -3 -3 -4 -6 -6 -2 1 -1 -2 -4 -5 -6 -5 -5 -4 -5 -6 -5 -4 -3 -2 -2 -2 -1 -0 1 1 0 0 -0 -1 -1 -2 -2 -2 -2 -2 -2 -2 -2 -2 -1 -1 -1 -2 -2 -2 -2 -2 -2 -1 -1 -1 -1 -1 -1 -0 -0 0 0 0 0 -0
-2 -2 -2 -2 -2 -1 -1 -2 -2 -2 -2 -2 -2 -2 -1 -1 -1 -2 -2 -2 -2 -2 -2 -2 -1 -1 -1 -2 -0 1 -0 -2 -4 -6 -7 -6 -5 -4 -6 -6 -6 -5 -4 -3 -2 -2 -1 -1 0 1 1 0 -0 -1 -2 -2 -2 -1 -1 -1 -1 -1 -1 -2 -1 -1 -1 -1 -1 -2 -2 -2 -2 -1 -1 -1 -1 -1 -1 -0 -0 0 0 0 -0 -0
-1 -2 -2 -2 -2 -2 -2 -2 -2 -2 -2 -2 -2 -2 -2 -2 -1 -1 -1 -1 -0 -0 -0 -0 -0 -0 -0 -1 -0 0 0 -3 -5 -7 -8 -7 -6 -4 -4 -4 -4 -5 -5 -3 -2 -1 -0 -1 -1 -0 -0 -0 -1 -2 -2 -2 -1 -1 -0 -1 -1 -1 -2 -2 -2 -1 -1 -1 -1 -1 -1 -1 -1 -1 -0 -0 -1 -1 -1 -0 -0 -0 -0 -0 -0 0
-1 -1 -1 -1 -2 -2 -2 -1 -1 -1 -1 -1 -2 -2 -2 -2 -2 -1 -1 -1 -0 -0 -0 0 1 1 1 -1 -2 -3 -3 -4 -5 -6 -7 -8 -7 -6 -4 -4 -5 -5 -6 -5 -3 -2 -1 -1 -1 -1 -1 -2 -2 -3 -2 -2 -1 -0 -0 -0 -0 -1 -1 -2 -2 -2 -1 -1 -1 -1 -1 -0 -0 0 -0 0 -0 -0 -0 -0 -1 -1 -1 -1 -0 0
-1 -1 -1 -1 -1 -2 -1 -1 -1 -1 -1 -1 -2 -2 -2 -2 -2 -2 -2 -2 -2 -2 -1 -0 1 2 1 -1 -4 -6 -6 -5 -4 -3 -6 -9 -8 -5 -2 -4 -6 -7 -6 -5 -4 -3 -1 -2 -2 -2 -2 -3 -3 -3 -2 -1 -0 -0 -0 -0 -1 -1 -1 -2 -2 -2 -1 -1 -1 -1 -1 -0 0 1 1 1 1 1 0 -0 -0 -1 -1 -1 -1 -0
-1 -1 -1 -1 -1 -1 -1 -1 -1 -1 -1 -2 -2 -1 -1 -1 -1 -2 -2 -2 -2 -2 -1 -0 -0 -2 -5 -8 -9 -8 -6 -4 -2 -2 -4 -7 -8 -6 -1 -4 -6 -7 -6 -5 -4 -4 -3 -2 -2 -3 -4 -4 -4 -3 -2 -1 -0 -0 -0 -1 -1 -1 -1 -1 -1 -1 -1 -1 -1 -1 -1 -0 0 1 1 1 1 1 1 0 -0 -0 -1 -1 -0 0
-1 -1 -1 -1 -1 -1 -1 -1 -2 -2 -2 -2 -1 -1 -0 0 0 -0 -1 -1 -2 -3 -4 -4 -5 -6 -6 -6 -4 -2 -1 -2 -1 -0 -2 -6 -7 -6 -3 -4 -6 -7 -8 -4 -4 -4 -5 -3 -3 -3 -5 -5 -4 -3 -2 -2 -1 -0 -0 -1 -1 -0 -0 -0 -1 -1 -1 -1 -1 -1 -1 -1 -0 0 1 1 1 1 1 1 0 -0 -0 -1 -0 0
-1 -1 -1 -1 -1 -1 -1 -2 -2 -2 -2 -2 -1 -1 -1 -0 -0 -1 -2 -3 -5 -6 -7 -8 -7 -5 -1 1 1 2 2 -2 -2 -1 -1 -5 -8 -8 -3 -2 -3 -6 -8 -6 -3 -3 -5 -6 -5 -4 -4 -5 -5 -4 -3 -2 -1 -0 -0 0 0 0 0 0 -0 -0 -1 -1 -1 -1 -1 -1 -1 -0 -0 0 1 1 1 0 0 -0 -0 -1 -1 -0
-1 -2 -2 -1 -1 -1 -2 -2 -2 -2 -1 -1 -1 -1 -2 -2 -2 -2 -3 -4 -4 -4 -3 -3 -3 -2 -1 -1 -0 -0 0 -3 -4 -3 -1 -3 -7 -9 -4 -1 -1 -4 -8 -7 -5 -4 -6 -8 -7 -6 -4 -4 -3 -3 -2 -2 -1 -0 0 1 1 1 1 0 0 -0 -0 -0 -0 -0 -0 -1 -1 -1 -0 -0 0 1 0 0 0 0 0 -0 -0 -0
-2 -2 -2 -2 -1 -1 -1 -1 -1 -1 -1 -1 -1 -1 -1 -2 -2 -2 -2 -2 -1 -1 -1 -3 -4 -4 -4 -3 -2 -1 -2 -3 -4 -3 -1 -1 -4 -7 -5 -1 -0 -2 -7 -8 -7 -4 -4 -7 -8 -7 -4 -2 -1 -0 -0 -0 -0 -0 0 0 0 0 0 1 1 0 0 0 -0 -0 -0 -0 -0 -0 -0 -0 0 0 0 0 0 0 0 -0 -0 -0
-2 -2 -1 -1 -1 -1 -0 -0 -0 -0 -0 -0 -0 -1 -1 -2 -2 -2 -2 -2 -1 -2 -2 -3 -4 -4 -5 -4 -2 -2 -2 -1 -1 -2 -1 -1 -3 -5 -5 -2 -0 -1 -4 -8 -8 -6 -3 -4 -5 -4 -2 -0 0 1 0 0 -0 -0 -1 -1 -1 -0 0 1 1 1 1 0 0 0 -0 -0 -0 0 0 0 0 0 0 0 0 0 0 0 0 -0
-1 -0 0 0 0 0 0 0 0 -0 -0 -0 -0 -1 -1 -1 -2 -2 -2 -2 -2 -2 -2 -2 -2 -2 -3 -4 -4 -3 -1 1 0 -0 1 0 -2 -4 -3 -2 -2 -2 -2 -7 -10 -9 -5 -2 -1 -0 -0 0 1 1 -0 -0 -1 -1 -1 -1 -1 -1 -0 1 1 1 1 1 0 0 0 0 0 0 0 1 1 1 0 -0 0 0 1 1 0 -0
0 1 1 1 1 0 0 -0 -0 -0 -1 -1 -1 -1 -1 -1 -1 -2 -2 -2 -2 -2 -2 -1 -1 -1 -2 -4 -6 -6 -1 2 1 -0 1 -0 -2 -4 -2 -2 -2 -2 -1 -6 -11 -14 -12 -4 1 3 1 -0 -0 -0 -0 -0 -1 -1 -0 -0 -0 -0 -0 -0 0 0 0 0 0 1 1 1 1 1 1 1 1 1 1 0 1 1 1 1 0 -0
1 1 1 0 -0 -0 -1 -1 -1 -1 -1 -1 -1 -1 -1 -1 -1 -2 -2 -2 -2 -2 -2 -1 -1 -0 -0 -2 -3 -4 -3 1 1 -0 -1 -1 -2 -3 -2 -2 -2 -1 2 -0 -5 -11 -18 -17 -8 1 5 2 0 -0 0 0 0 0 1 1 0 0 -0 -1 -1 -1 -0 -0 0 1 1 1 1 1 1 1 1 1 1 1 1 2 1 1 0 -0
1 0 -0 -1 -1 -1 -1 -1 -1 -1 -0 -0 0 0 -0 -0 -1 -1 -2 -2 -1 -1 -1 -1 -1 -0 1 2 2 1 -1 1 1 -0 -1 -1 -2 -3 -0 -0 -1 -1 3 4 3 -1 -9 -19 -19 -11 -1 1 1 -0 0 1 1 2 2 2 1 1 0 -1 -1 -2 -2 -1 -0 0 1 1 1 1 1 1 1 1 1 1 2 2 2 1 1 0
-0 -1 -1 -1 -1 -1 -1 -0 -0 0 1 1 1 1 0 -0 -1 -1 -1 -1 -0 -0 0 -0 -0 -0 -0 1 1 1 1 1 1 1 1 -0 -2 -3 -1 1 0 -0 1 4 6 6 2 -7 -13 -15 -10 -3 0 1 0 1 2 2 2 2 1 1 0 -0 -1 -2 -2 -2 -2 -1 -0 1 1 1 1 1 1 1 1 1 2 2 3 2 2 1
-1 -1 -1 -1 -1 -1 -0 -0 0 1 1 1 1 0 -0 -1 -1 -1 -0 -0 0 1 1 2 1 1 -0 -1 -1 -1 1 2 2 2 1 0 -1 -3 -2 -0 0 0 0 1 3 4 4 1 -3 -7 -12 -9 -3 2 3 3 3 3 2 2 1 0 -0 -1 -2 -2 -3 -3 -3 -2 -1 -0 0 1 0 0 1 1 2 2 2 2 3 3 3 2
-2 -2 -1 -1 -1 -0 -0 -0 -0 0 0 0 -0 -0 -1 -1 -1 -1 -0 0 1 1 2 3 3 3 2 0 -1 -2 -0 2 3 2 1 0 -1 -3 -4 -1 1 2 1 -0 0 1 -0 -0 1 0 -5 -10 -8 -1 4 4 4 3 3 3 2 1 0 -1 -1 -2 -3 -3 -3 -2 -1 -0 -0 -0 -0 -0 0 1 1 1 1 1 1 2 3 3
-2 -1 -1 -1 -0 -0 -0 -0 -0 0 0 -0 -0 -1 -1 -1 -1 -1 -0 1 1 2 3 3 4 4 3 2 1 -0 0 2 3 3 2 1 -0 -2 -3 -1 2 3 2 1 1 1 -0 -2 -1 0 1 -5 -7 -6 -0 3 4 3 2 3 3 2 0 -0 -1 -2 -3 -3 -3 -2 -1 -0 -0 -0 -0 0 0 1 1 1 0 0 0 1 2 3
-1 -1 -1 -1 -0 -0 -0 -0 -0 -0 -1 -1 -1 -2 -2 -2 -1 -0 0 1 2 2 3 3 3 2 2 2 1 1 1 2 2 2 2 1 0 -0 -1 0 2 4 4 2 0 -0 -0 -3 -4 -3 0 -0 -2 -5 -6 -3 -0 2 3 3 2 1 0 -0 -0 -1 -1 -2 -1 -1 -0 -0 -0 -1 -1 -0 -0 0 0 0 0 -0 -0 -0 -0 1
-1 -0 -0 -1 -1 -1 -1 -1 -1 -1 -2 -3 -3 -3 -3 -2 -1 -0 -0 1 1 1 1 1 1 1 1 1 1 1 1 1 1 1 1 1 2 2 1 1 2 3 5 4 2 1 -0 -2 -4 -6 -5 -3 -1 0 -2 -3 -3 -1 1 3 3 2 1 1 1 0 -0 -0 -0 -0 -0 -0 -1 -1 -1 -1 -1 -1 -1 -1 -1 -1 -2 -2 -1 -0
-1 -1 -1 -1 -1 -1 -1 -2 -2 -2 -2 -3 -3 -3 -3 -2 -1 -0 0 1 1 1 1 -0 -0 0 1 2 1 1 -0 -0 -0 0 1 2 3 3 3 1 1 2 4 5 4 3 2 1 -1 -3 -5 -7 -6 -4 -0 1 1 -0 -1 -1 0 1 3 2 1 1 1 0 -0 -1 -2 -1 -1 -1 -1 -1 -1 -2 -2 -2 -2 -2 -2 -3 -3 -2
-1 -1 -1 -1 -1 -1 -1 -2 -2 -2 -2 -3 -2 -2 -2 -2 -1 0 1 1 2 1 1 1 1 1 1 1 0 -0 -1 -2 -1 -1 -0 1 1 2 2 1 0 0 2 3 4 4 4 2 1 1 1 -1 -4 -6 -5 -1 1 2 0 -2 -3 -3 0 2 2 1 1 0 -0 -1 -2 -2 -2 -1 -0 -1 -0 -1 -1 -2 -2 -2 -1 -1 -2 -3
-1 -1 -1 -1 -1 -1 -1 -1 -1 -2 -2 -2 -2 -2 -2 -2 -2 -1 1 2 2 1 1 1 2 2 2 0 -1 -2 -2 -2 -1 -1 -0 -0 -0 -0 -0 -0 -0 -0 -0 0 2 4 5 4 2 1 1 1 0 -1 -2 -1 1 2 2 1 -0 -2 -1 2 3 3 0 -0 -0 -1 -1 -2 -2 -1 -1 -0 -0 -0 -0 -1 -2 -2 -1 0 1 1
-1 -1 -1 -1 -1 -1 -0 -0 -1 -1 -2 -2 -3 -3 -3 -3 -3 -3 -2 -1 -1 -1 -1 -1 -1 -1 -1 -0 -0 -1 -1 -0 0 -0 -1 -1 -1 -1 -1 -1 -1 -1 -1 -0 1 2 4 4 3 2 1 1 -0 -2 -4 -2 0 2 2 1 -0 -2 -3 -1 2 3 1 -1 -2 -2 -2 -2 -2 -2 -2 -2 -2 -2 -2 -1 -1 -0 -0 0 1 1
-0 -0 -0 -0 -1 -1 -1 -1 -1 -1 -2 -2 -2 -2 -2 -2 -2 -2 -2 -2 -2 -2 -2 -3 -3 -4 -5 -4 -2 0 2 1 -0 -1 -2 -2 -2 -1 -1 -0 0 0 -0 -0 -0 1 3 4 4 3 2 2 1 -1 -5 -6 -4 -2 0 1 2 1 -4 -6 -4 -1 0 -1 -1 -2 -2 -1 -1 -1 -1 -2 -2 -2 -2 -2 -1 0 1 1 1 1
-0 -0 -0 -0 -0 -0 -0 -1 -1 -2 -2 -2 -2 -2 -1 -1 -1 -1 -2 -2 -2 -2 -3 -3 -3 -4 -5 -5 -4 -3 -0 -0 -0 -1 -2 -2 -1 -0 -0 1 1 1 1 -0 -1 -2 -2 1 3 3 2 2 1 0 -2 -4 -4 -4 -2 0 3 4 3 -1 -3 -4 -3 -3 -2 -1 -0 -0 -0 -1 -1 -1 -1 -1 -1 -1 -1 -1 -0 0 1 1
-0 -0 -0 -0 -0 -0 -1 -1 -2 -2 -2 -2 -2 -2 -1 -0 -0 -0 -1 -2 -2 -2 -2 -3 -4 -5 -6 -5 -5 -5 -5 -3 -2 -1 -1 -1 -0 -0 -0 -1 -1 -0 0 1 -0 -1 -3 -3 -1 1 2 1 -0 -1 -1 -1 -2 -2 -1 -0 1 2 2 2 1 -0 -1 -3 -3 -2 -1 -0 -0 -1 -2 -2 -1 -0 0 -0 -0 -1 -1 -0 0 1
-0 -0 0 0 0 -0 -1 -1 -2 -2 -2 -2 -2 -1 -1 -0 0 -0 -1 -1 -2 -2 -1 -2 -2 -3 -4 -4 -5 -6 -7 -5 -3 -2 -1 -0 -0 -0 -0 -1 -1 -0 0 1 1 1 -0 -1 -2 -2 -1 -0 -0 -1 -1 0 1 1 -1 -1 -1 -1 -1 0 1 1 1 -1 -1 -2 -1 -0 -0 -0 -1 -1 -1 -0 1 1 1 0 -0 -0 0 0
-0 -0 0 0 0 -0 -1 -2 -2 -2 -2 -2 -1 -0 0 -0 -0 -0 -1 -1 -1 -1 -1 -1 -1 -0 -1 -2 -4 -5 -6 -6 -5 -3 -1 -0 -0 0 0 0 1 1 2 1 -0 -0 0 1 1 0 -0 0 -0 0 1 2 3 2 -0 -2 -2 -2 -2 -1 0 1 2 1 0 -1 -2 -3 -3 -2 -1 -1 -0 -0 0 1 2 2 1 0 0 0
-0 -0 0 0 -0 -0 -1 -2 -3 -3 -3 -1 -0 1 1 1 -0 -1 -2 -2 -2 -2 -2 -2 -1 -1 -1 -0 -0 -1 -2 -2 -3 -3 -2 -1 -0 1 1 1 2 2 2 1 -0 -1 -2 -1 1 2 3 3 2 2 1 2 2 2 0 -1 -2 -2 -2 -1 1 2 2 2 1 1 -0 -1 -1 -2 -3 -3 -3 -2 -0 1 2 2 2 1 0 0
-0 -0 -0 -0 -0 -1 -2 -3 -3 -3 -3 -2 -1 0 1 1 0 -1 -2 -2 -2 -2 -2 -2 -2 -2 -2 -1 -0 0 0 -0 -1 -1 -1 -1 -0 -0 0 1 1 2 2 2 1 -0 -2 -2 -1 2 4 6 7 6 3 1 -0 -1 -1 -1 -2 -2 -3 -2 -0 1 2 1 1 1 2 2 1 1 1 -1 -2 -3 -1 0 2 2 2 2 1 1
-0 0 0 0 -0 -1 -2 -3 -3 -3 -3 -2 -1 -1 -0 -0 -0 -1 -1 -1 -1 -1 -0 -0 -1 -2 -3 -2 -2 -1 -1 -1 -1 -1 -0 -0 -0 -1 -1 -1 -2 -2 -2 -1 -0 0 -1 -3 -1 2 6 8 8 8 5 1 -2 -3 -3 -2 -1 -1 -3 -3 -2 -0 1 0 -0 -1 -0 0 1 2 4 3 0 -2 -3 -1 1 3 4 3 3 2
0 1 1 0 -0 -1 -2 -3 -3 -3 -3 -2 -1 -1 -1 -1 -1 -2 -2 -1 -1 -1 -0 0 0 -0 -1 -2 -1 -1 -0 -1 -1 -1 -1 -1 -1 -1 -1 -2 -4 -5 -7 -7 -6 -4 -4 -5 -4 -1 4 9 8 6 5 2 -1 -3 -3 -2 -1 -1 -2 -4 -5 -4 -1 -0 -0 -1 -2 -1 1 2 5 4 1 -2 -5 -3 -0 3 4 4 4 3
Height
1504 1504 1503 1502 1501 1501 1500 1499 1498 1497 1496 1495 1494 1492 1491 1489 1488 1486 1485 1483 1482 1480 1479 1477 1476 1474 1473 1471 1469 1468 1466 1464 1462 1460 1459 1457 1455 1454 1452 1451 1449 1448 1446 1444 1443 1441 1439 1438 1437 1435 1434 1433 1431 1429 1427 1425 1424 1422 1420 1419 1417 1415 1414 1413 1411 1410 1409 1408 1407 1406 1405 1404 1402 1401 1399 1398 1397 1395 1394 1392 1391 1390 1389 1388 1387 1386
1504 1503 1502 1502 1501 1500 1499 1498 1498 1496 1495 1494 1493 1492 1490 1489 1487 1486 1484 1483 1481 1480 1478 1477 1475 1474 1472 1470 1469 1467 1465 1463 1461 1459 1458 1456 1454 1453 1451 1450 1448 1447 1445 1443 1441 1439 1438 1437 1435 1434 1433 1431 1429 1428 1426 1424 1422 1420 1419 1417 1415 1414 1412 1411 1409 1408 1407 1406 1405 1404 1403 1402 1401 1399 1398 1396 1395 1394 1392 1391 1390 1389 1388 1387 1386 1385
1503 1503 1502 1501 1500 1500 1499 1498 1497 1496 1495 1494 1493 1491 1490 1489 1487 1485 1484 1482 1481 1479 1478 1476 1474 1473 1471 1470 1468 1466 1464 1463 1461 1459 1457 1455 1454 1452 1450 1449 1447 1445 1444 1442 1440 1439 1437 1436 1434 1433 1431 1429 1428 1426 1424 1423 1421 1419 1417 1415 1414 1412 1411 1409 1408 1407 1405 1404 1404 1403 1401 1400 1399 1398 1396 1395 1393 1392 1391 1389 1389 1388 1387 1386 1385 1383
1503 1502 1501 1501 1500 1499 1498 1497 1496 1495 1494 1493 1492 1491 1489 1488 1487 1485 1484 1482 1481 1479 1477 1476 1474 1472 1471 1469 1467 1465 1464 1462 1460 1458 1456 1454 1453 1451 1449 1448 1446 1444 1443 1441 1439 1438 1436 1435 1433 1431 1430 1428 1426 1425 1423 1421 1419 1418 1416 1414 1413 1411 1409 1408 1406 1405 1404 1403 1402 1401 1400 1398 1397 1396 1394 1393 1392 1390 1389 1388 1387 1386 1386 1385 1384 1382
1502 1502 1501 1500 1499 1499 1498 1497 1496 1495 1494 1493 1491 1490 1489 1488 1487 1485 1484 1482 1480 1479 1477 1475 1473 1472 1470 1468 1466 1465 1463 1461 1459 1458 1456 1454 1452 1450 1449 1447 1445 1444 1442 1440 1439 1437 1435 1434 1432 1430 1429 1427 1425 1423 1422 1420 1418 1416 1414 1413 1411 1409 1408 1406 1405 1404 1403 1401 1400 1399 1398 1397 1395 1394 1393 1392 1391 1389 1388 1387 1386 1385 1384 1383 1382 1381
1502 1501 1501 1500 1499 1498 1497 1496 1495 1494 1493 1492 1491 1490 1489 1487 1486 1485 1483 1482 1480 1478 1477 1475 1473 1471 1469 1468 1466 1464 1462 1460 1459 1457 1455 1453 1451 1449 1448 1446 1445 1443 1441 1440 1438 1436 1435 1433 1431 1429 1428 1426 1424 1422 1420 1418 1417 1415 1413 1411 1409 1408 1406 1405 1404 1403 1401 1400 1399 1398 1396 1395 1394 1393 1392 1390 1389 1388 1387 1385 1384 1384 1383 1382 1380 1379
1502 1501 1500 1499 1499 1498 1497 1496 1495 1494 1493 1492 1491 1489 1488 1487 1485 1484 1483 1481 1479 1478 1476 1474 1473 1471 1469 1467 1465 1463 1462 1460 1458 1456 1454 1453 1451 1449 1448 1446 1444 1443 1441 1439 1437 1436 1434 1432 1430 1428 1426 1424 1423 1421 1419 1417 1415 1413 1412 1410 1408 1407 1405 1404 1402 1401 1400 1399 1398 1396 1395 1394 1393 1392 1390 1389 1388 1386 1385 1384 1383 1382 1381 1380 1379 1378
1501 1500 1500 1499 1498 1497 1496 1495 1494 1493 1492 1491 1490 1489 1488 1487 1485 1483 1482 1480 1478 1477 1475 1474 1473 1471 1469 1467 1464 1463 1461 1459 1457 1455 1454 1452 1450 1449 1447 1445 1444 1442 1440 1439 1437 1435 1433 1431 1429 1427 1425 1423 1421 1419 1417 1415 1414 1412 1410 1409 1407 1405 1404 1402 1401 1400 1399 1397 1396 1395 1394 1393 1391 1390 1389 1388 1386 1385 1384 1383 1382 1381 1379 1379 1378 1377
1501 1500 1499 1498 1498 1497 1495 1494 1494 1493 1492 1491 1490 1489 1487 1486 1484 1483 1481 1479 1478 1476 1474 1473 1472 1470 1469 1467 1464 1462 1460 1459 1457 1455 1453 1451 1449 1448 1446 1445 1443 1442 1440 1438 1436 1434 1432 1430 1428 1426 1424 1422 1420 1418 1416 1414 1412 1410 1409 1407 1405 1404 1403 1401 1400 1399 1397 1396 1395 1394 1392 1391 1390 1389 1388 1386 1385 1384 1382 1381 1380 1379 1378 1377 1376 1375
1500 1499 1499 1498 1497 1496 1495 1494 1493 1492 1491 1490 1489 1487 1486 1484 1483 1481 1480 1478 1477 1475 1474 1472 1470 1469 1467 1466 1464 1462 1460 1458 1456 1455 1453 1451 1449 1448 1446 1444 1442 1440 1439 1437 1434 1433 1430 1429 1426 1424 1422 1420 1419 1417 1414 1413 1411 1409 1407 1406 1404 1403 1401 1400 1399 1397 1396 1394 1393 1392 1391 1390 1389 1387 1386 1385 1384 1382 1381 1380 1379 1378 1377 1375 1374 1374
1500 1499 1498 1497 1496 1496 1495 1494 1493 1492 1491 1489 1488 1486 1484 1483 1481 1479 1478 1476 1475 1474 1473 1471 1469 1468 1466 1464 1462 1461 1459 1457 1455 1454 1453 1451 1449 1448 1446 1444 1442 1440 1438 1436 1434 1431 1429 1427 1425 1423 1421 1419 1417 1415 1413 1411 1409 1408 1406 1404 1403 1401 1400 1399 1397 1396 1394 1393 1392 1391 1389 1388 1387 1386 1384 1383 1382 1381 1380 1379 1378 1376 1375 1374 1373 1372
1499 1499 1498 1497 1496 1495 1494 1494 1492 1491 1490 1488 1486 1485 1483 1482 1480 1479 1477 1475 1474 1472 1471 1469 1468 1466 1464 1463 1460 1459 1457 1455 1454 1453 1451 1450 1448 1447 1445 1443 1441 1439 1436 1434 1432 1430 1428 1426 1424 1422 1420 1418 1416 1414 1412 1410 1408 1407 1405 1403 1402 1400 1399 1397 1396 1394 1393 1392 1390 1389 1388 1387 1385 1384 1383 1382 1381 1379 1379 1377 1376 1375 1374 1373 1372 1371
1499 1498 1498 1497 1496 1495 1494 1493 1492 1490 1489 1487 1486 1484 1483 1482 1480 1478 1476 1474 1473 1471 1469 1468 1466 1464 1462 1461 1459 1458 1456 1454 1453 1452 1451 1449 1447 1445 1443 1441 1439 1437 1435 1433 1431 1429 1427 1424 1423 1421 1419 1417 1415 1413 1411 1409 1407 1405 1404 1402 1400 1399 1397 1396 1394 1393 1392 1390 1389 1388 1387 1385 1384 1383 1382 1380 1379 1378 1377 1376 1375 1374 1373 1372 1370 1369
1499 1498 1497 1496 1495 1494 1494 1492 1491 1490 1488 1487 1486 1484 1483 1481 1479 1477 1475 1474 1472 1470 1469 1467 1465 1463 1461 1459 1457 1456 1455 1453 1452 1451 1450 1448 1446 1444 1442 1440 1438 1436 1433 1431 1429 1427 1425 1423 1421 1419 1418 1416 1414 1412 1410 1408 1406 1404 1402 1401 1399 1398 1396 1394 1393 1392 1390 1389 1388 1386 1385 1384 1383 1381 1380 1379 1378 1377 1376 1374 1374 1372 1371 1370 1369 1369
1498 1497 1497 1496 1495 1494 1493 1492 1491 1489 1488 1487 1485 1484 1482 1480 1479 1477 1475 1473 1471 1469 1468 1466 1464 1462 1461 1459 1457 1455 1454 1452 1451 1449 1448 1447 1445 1443 1440 1438 1436 1434 1432 1430 1428 1426 1424 1422 1420 1419 1417 1415 1413 1411 1409 1407 1405 1403 1401 1399 1398 1396 1395 1393 1392 1390 1389 1388 1386 1385 1384 1382 1381 1380 1379 1378 1377 1375 1374 1373 1372 1371 1370 1369 1368 1367
1498 1497 1496 1495 1494 1493 1492 1491 1490 1489 1487 1486 1484 1483 1481 1479 1478 1476 1475 1473 1471 1469 1467 1464 1462 1461 1460 1459 1458 1456 1454 1452 1450 1449 1447 1445 1444 1442 1439 1437 1434 1433 1431 1429 1427 1425 1423 1421 1420 1418 1416 1414 1412 1410 1408 1405 1404 1402 1400 1399 1397 1395 1394 1392 1391 1389 1388 1386 1385 1384 1382 1381 1380 1379 1377 1376 1375 1374 1373 1372 1371 1370 1369 1368 1367 1366
1497 1497 1496 1495 1494 1493 1492 1491 1489 1488 1487 1485 1484 1482 1481 1479 1478 1476 1474 1473 1470 1468 1466 1464 1462 1460 1459 1458 1457 1456 1454 1451 1449 1447 1445 1444 1442 1441 1439 1436 1434 1431 1430 1428 1426 1424 1423 1421 1419 1417 1415 1413 1411 1409 1406 1404 1403 1401 1399 1397 1396 1394 1393 1391 1389 1388 1387 1385 1384 1382 1381 1379 1378 1377 1376 1375 1374 1373 1372 1370 1369 1369 1367 1366 1365 1364
1497 1496 1495 1494 1493 1492 1491 1490 1489 1488 1486 1485 1483 1482 1480 1479 1477 1476 1474 1472 1470 1468 1466 1464 1463 1462 1459 1458 1456 1455 1453 1451 1449 1446 1444 1442 1441 1439 1438 1435 1433 1431 1429 1427 1425 1424 1422 1420 1418 1416 1414 1412 1410 1408 1405 1404 1402 1400 1398 1396 1395 1393 1391 1390 1388 1387 1385 1384 1382 1381 1379 1378 1377 1376 1374 1374 1372 1371 1370 1369 1368 1367 1366 1365 1364 1363
1496 1495 1495 1494 1493 1492 1491 1489 1488 1487 1486 1484 1483 1481 1480 1479 1477 1475 1474 1472 1470 1469 1467 1465 1463 1462 1460 1458 1456 1455 1453 1451 1448 1445 1443 1441 1439 1438 1436 1434 1432 1430 1428 1426 1424 1423 1421 1419 1417 1415 1413 1411 1409 1406 1404 1402 1400 1399 1397 1395 1394 1392 1390 1389 1387 1385 1384 1382 1381 1379 1378 1377 1375 1374 1373 1372 1371 1370 1369 1368 1367 1366 1365 1364 1363 1362
1496 1495 1494 1493 1492 1491 1490 1489 1488 1487 1485 1484 1483 1481 1479 1478 1477 1475 1474 1472 1470 1469 1467 1465 1463 1461 1460 1458 1456 1454 1452 1450 1447 1444 1442 1440 1438 1437 1435 1434 1431 1429 1427 1425 1424 1422 1420 1418 1416 1414 1412 1410 1408 1405 1403 1401 1399 1398 1396 1394 1392 1391 1389 1387 1385 1384 1382 1381 1379 1378 1376 1375 1374 1373 1371 1370 1369 1368 1367 1366 1365 1364 1363 1362 1361 1360
1495 1494 1494 1493 1492 1491 1490 1489 1488 1486 1485 1484 1482 1480 1479 1477 1476 1475 1474 1472 1470 1468 1466 1464 1463 1461 1459 1457 1455 1453 1451 1449 1446 1444 1441 1439 1437 1436 1434 1433 1430 1428 1425 1424 1423 1421 1419 1417 1415 1413 1411 1409 1406 1404 1402 1400 1398 1396 1394 1393 1391 1389 1387 1386 1384 1382 1381 1379 1378 1376 1375 1374 1372 1371 1370 1369 1368 1367 1366 1364 1364 1363 1362 1360 1360 1359
1495 1494 1494 1493 1492 1491 1489 1489 1487 1486 1484 1483 1481 1480 1479 1477 1476 1474 1473 1471 1469 1468 1466 1464 1463 1460 1458 1455 1453 1451 1449 1448 1446 1444 1441 1437 1435 1434 1434 1431 1429 1426 1424 1422 1421 1419 1418 1416 1414 1411 1409 1407 1405 1403 1401 1399 1397 1395 1393 1391 1389 1388 1386 1384 1382 1381 1379 1378 1376 1375 1373 1372 1371 1369 1368 1367 1366 1365 1364 1363 1362 1361 1360 1359 1358 1357
1495 1494 1493 1492 1491 1490 1489 1488 1486 1485 1484 1482 1481 1480 1479 1477 1476 1474 1473 1471 1469 1468 1465 1463 1461 1458 1456 1454 1451 1450 1449 1447 1445 1444 1441 1438 1435 1433 1432 1430 1427 1425 1423 1421 1419 1417 1415 1413 1411 1409 1407 1405 1403 1401 1399 1397 1395 1393 1391 1389 1388 1386 1384 1383 1381 1379 1378 1376 1375 1373 1372 1370 1369 1368 1367 1366 1365 1364 1363 1361 1360 1359 1358 1358 1357 1356
1494 1494 1493 1492 1491 1489 1488 1487 1486 1484 1483 1482 1480 1479 1478 1477 1475 1474 1472 1470 1468 1466 1464 1461 1458 1456 1454 1453 1452 1451 1449 1447 1445 1443 1440 1437 1434 1432 1430 1428 1426 1424 1421 1419 1418 1415 1413 1411 1409 1407 1404 1402 1400 1399 1397 1396 1394 1392 1390 1388 1386 1384 1383 1381 1379 1378 1376 1375 1373 1372 1370 1369 1368 1367 1366 1364 1364 1362 1361 1360 1359 1358 1357 1356 1355 1354
1494 1493 1492 1491 1490 1489 1488 1486 1485 1484 1482 1481 1480 1479 1477 1476 1474 1473 1471 1469 1466 1464 1461 1459 1457 1456 1454 1454 1452 1451 1449 1447 1444 1442 1439 1436 1433 1431 1429 1428 1426 1423 1420 1418 1416 1414 1411 1409 1406 1404 1402 1400 1398 1397 1395 1394 1392 1390 1389 1386 1385 1383 1381 1379 1378 1376 1375 1373 1372 1371 1369 1368 1366 1365 1364 1363 1362 1361 1360 1359 1358 1357 1355 1355 1354 1353
1493 1492 1491 1490 1489 1488 1486 1485 1484 1483 1482 1481 1479 1478 1477 1475 1474 1472 1470 1468 1466 1464 1462 1460 1458 1456 1455 1453 1451 1450 1448 1446 1443 1441 1439 1436 1432 1429 1428 1427 1425 1422 1419 1416 1414 1412 1409 1406 1404 1402 1400 1398 1397 1395 1394 1393 1391 1389 1387 1385 1384 1382 1380 1378 1377 1375 1374 1372 1371 1369 1368 1366 1365 1364 1363 1362 1361 1359 1358 1357 1356 1355 1354 1353 1352 1351
1493 1492 1491 1489 1489 1487 1486 1485 1484 1483 1482 1480 1479 1478 1477 1475 1474 1472 1470 1468 1467 1465 1462 1460 1457 1455 1454 1452 1450 1449 1447 1444 1442 1440 1438 1436 1432 1429 1427 1426 1424 1421 1417 1414 1412 1410 1408 1405 1402 1400 1399 1398 1396 1394 1393 1391 1389 1388 1386 1384 1382 1380 1379 1377 1375 1374 1372 1371 1369 1368 1367 1365 1364 1363 1362 1360 1359 1358 1357 1356 1355 1354 1353 1352 1351 1350
1492 1491 1490 1489 1488 1487 1486 1485 1484 1483 1482 1480 1479 1478 1476 1475 1473 1472 1470 1469 1467 1465 1462 1460 1458 1455 1453 1451 1449 1448 1445 1443 1441 1439 1437 1435 1433 1429 1427 1425 1423 1419 1416 1413 1410 1408 1406 1404 1402 1400 1399 1397 1395 1393 1391 1389 1388 1386 1384 1383 1381 1379 1378 1376 1374 1373 1371 1370 1368 1367 1365 1364 1363 1362 1360 1359 1358 1357 1356 1355 1354 1353 1352 1351 1349 1349
1492 1491 1490 1489 1488 1487 1486 1485 1484 1482 1481 1480 1479 1477 1476 1475 1473 1472 1470 1468 1466 1464 1462 1460 1458 1455 1453 1450 1448 1447 1445 1444 1441 1439 1437 1435 1432 1429 1427 1424 1422 1419 1415 1411 1407 1405 1405 1404 1403 1401 1399 1396 1394 1392 1389 1387 1385 1384 1382 1381 1379 1378 1377 1375 1374 1372 1370 1369 1367 1366 1364 1363 1362 1361 1359 1359 1357 1356 1355 1354 1353 1352 1351 1350 1349 1347
1492 1491 1490 1489 1488 1487 1486 1484 1483 1482 1481 1479 1478 1477 1475 1474 1473 1471 1469 1468 1466 1464 1462 1459 1457 1455 1453 1449 1447 1445 1445 1444 1442 1439 1436 1434 1431 1428 1425 1423 1421 1419 1415 1411 1407 1403 1401 1401 1401 1400 1398 1395 1393 1390 1388 1386 1384 1382 1380 1379 1378 1377 1376 1374 1373 1371 1369 1368 1366 1365 1364 1362 1361 1360 1359 1357 1356 1355 1354 1353 1352 1351 1350 1349 1348 1347
1492 1491 1490 1489 1487 1486 1485 1484 1483 1481 1480 1479 1477 1476 1475 1473 1472 1470 1469 1467 1465 1463 1461 1459 1457 1455 1453 1450 1447 1445 1444 1443 1441 1439 1436 1433 1430 1427 1425 1422 1420 1418 1416 1414 1410 1406 1400 1398 1397 1398 1396 1394 1392 1389 1387 1385 1383 1381 1380 1378 1377 1376 1374 1373 1372 1370 1369 1367 1366 1364 1363 1361 1360 1359 1358 1356 1355 1354 1353 1352 1352 1350 1349 1348 1347 1346
1492 1491 1489 1488 1487 1486 1485 1484 1482 1481 1480 1479 1477 1476 1474 1473 1472 1470 1468 1466 1464 1462 1460 1459 1457 1455 1453 1451 1449 1446 1444 1442 1440 1438 1435 1433 1430 1427 1425 1422 1419 1417 1416 1414 1413 1410 1405 1399 1395 1394 1394 1392 1390 1388 1386 1384 1383 1381 1379 1378 1376 1374 1373 1372 1371 1369 1368 1366 1365 1363 1362 1360 1359 1358 1357 1355 1354 1353 1352 1351 1351 1350 1349 1348 1346 1345
1492 1490 1489 1488 1487 1486 1485 1484 1483 1481 1480 1479 1478 1476 1474 1473 1471 1469 1468 1466 1464 1462 1460 1458 1456 1454 1452 1450 1449 1446 1444 1442 1439 1437 1435 1432 1429 1427 1424 1422 1419 1416 1414 1413 1411 1410 1407 1402 1397 1393 1391 1390 1389 1388 1385 1384 1382 1381 1379 1377 1375 1374 1372 1371 1369 1368 1367 1365 1364 1362 1361 1359 1358 1357 1355 1354 1353 1352 1351 1351 1350 1349 1348 1347 1346 1345
1491 1490 1489 1488 1487 1486 1484 1484 1482 1481 1480 1479 1477 1476 1474 1473 1471 1469 1467 1465 1463 1462 1460 1458 1456 1454 1451 1449 1447 1445 1444 1442 1440 1438 1435 1432 1429 1426 1424 1421 1419 1416 1414 1411 1409 1407 1405 1401 1398 1394 1390 1388 1387 1387 1385 1384 1382 1380 1379 1377 1375 1373 1371 1370 1369 1367 1366 1364 1363 1361 1360 1358 1357 1356 1354 1354 1352 1351 1350 1350 1349 1348 1347 1347 1346 1345
1490 1489 1489 1488 1487 1486 1484 1484 1482 1481 1479 1478 1477 1476 1474 1473 1471 1469 1467 1465 1463 1462 1460 1458 1456 1454 1452 1449 1447 1444 1443 1441 1440 1437 1435 1432 1429 1426 1423 1421 1419 1416 1413 1410 1408 1406 1403 1400 1397 1395 1392 1388 1385 1385 1385 1384 1382 1380 1378 1376 1374 1373 1371 1369 1368 1367 1365 1364 1362 1360 1359 1358 1356 1355 1354 1353 1352 1351 1350 1349 1348 1347 1346 1346 1345 1344
1490 1489 1489 1488 1487 1486 1484 1483 1482 1481 1479 1478 1477 1475 1474 1472 1471 1469 1467 1465 1464 1462 1460 1458 1456 1454 1452 1450 1447 1444 1443 1441 1439 1437 1435 1432 1429 1426 1423 1421 1419 1416 1413 1410 1408 1405 1402 1399 1396 1394 1392 1389 1385 1383 1383 1382 1381 1379 1377 1375 1374 1372 1371 1369 1368 1366 1364 1363 1361 1360 1359 1357 1356 1354 1353 1352 1351 1350 1349 1348 1347 1346 1346 1345 1344 1344
1490 1489 1489 1488 1487 1485 1484 1483 1482 1480 1479 1478 1477 1475 1474 1472 1471 1469 1467 1465 1464 1462 1460 1458 1456 1454 1452 1449 1447 1445 1443 1441 1439 1437 1434 1432 1429 1426 1424 1421 1419 1417 1414 1411 1408 1405 1402 1399 1395 1393 1391 1389 1387 1384 1381 1380 1379 1377 1376 1375 1373 1372 1370 1369 1367 1366 1364 1363 1361 1360 1359 1357 1356 1354 1353 1352 1350 1349 1349 1348 1347 1346 1345 1344 1344 1343
1490 1489 1488 1487 1486 1485 1484 1483 1481 1480 1479 1478 1476 1475 1474 1472 1471 1469 1467 1465 1464 1462 1460 1458 1455 1453 1451 1449 1447 1445 1443 1441 1439 1436 1434 1432 1429 1426 1424 1421 1419 1416 1414 1412 1409 1405 1403 1399 1396 1393 1390 1388 1386 1385 1382 1380 1378 1376 1375 1374 1373 1371 1370 1368 1367 1365 1364 1362 1361 1359 1358 1357 1355 1354 1352 1351 1350 1349 1348 1347 1346 1345 1344 1344 1343 1343
1490 1489 1488 1487 1486 1484 1483 1482 1481 1480 1479 1478 1476 1475 1474 1472 1470 1469 1467 1465 1463 1461 1459 1457 1455 1453 1450 1448 1446 1444 1443 1440 1438 1436 1434 1432 1429 1426 1424 1421 1418 1416 1414 1411 1409 1406 1403 1400 1398 1395 1391 1388 1385 1383 1381 1380 1379 1377 1374 1373 1371 1370 1369 1368 1366 1365 1364 1362 1361 1359 1358 1356 1355 1354 1352 1351 1350 1349 1347 1346 1345 1345 1344 1343 1343 1342
1489 1489 1488 1486 1485 1484 1483 1482 1481 1479 1479 1477 1476 1475 1473 1471 1470 1468 1466 1465 1463 1461 1459 1457 1455 1453 1451 1449 1446 1444 1442 1440 1438 1436 1434 1431 1429 1426 1424 1421 1418 1415 1413 1410 1408 1405 1403 1401 1398 1395 1393 1390 1386 1383 1381 1380 1379 1377 1375 1372 1370 1369 1368 1368 1366 1365 1364 1362 1361 1359 1358 1356 1355 1354 1352 1351 1350 1349 1348 1346 1345 1344 1344 1343 1342 1341
1489 1488 1487 1486 1485 1484 1483 1482 1480 1479 1478 1477 1475 1474 1472 1470 1469 1467 1465 1464 1462 1460 1459 1457 1455 1453 1451 1449 1446 1444 1442 1439 1437 1435 1433 1431 1428 1426 1423 1420 1418 1415 1412 1409 1407 1405 1403 1400 1397 1394 1392 1390 1387 1384 1382 1381 1379 1378 1376 1374 1372 1370 1369 1368 1367 1365 1364 1362 1361 1359 1358 1356 1355 1353 1352 1351 1350 1349 1348 1347 1345 1344 1344 1343 1343 1342
1489 1488 1487 1485 1484 1484 1483 1481 1480 1479 1478 1476 1474 1473 1471 1469 1468 1466 1464 1463 1461 1459 1457 1455 1454 1451 1449 1448 1446 1444 1442 1440 1438 1435 1433 1430 1428 1425 1423 1420 1418 1415 1412 1409 1407 1404 1402 1400 1397 1394 1392 1390 1387 1384 1382 1380 1379 1378 1376 1374 1372 1370 1368 1367 1367 1365 1364 1362 1360 1359 1357 1356 1354 1353 1352 1351 1349 1349 1348 1347 1346 1345 1344 1343 1343 1342
1488 1487 1486 1485 1484 1483 1482 1481 1480 1479 1477 1476 1474 1472 1470 1469 1467 1465 1464 1462 1460 1458 1456 1454 1452 1450 1448 1446 1445 1444 1442 1439 1437 1434 1432 1430 1427 1425 1423 1420 1418 1415 1412 1409 1406 1404 1401 1399 1397 1394 1392 1390 1388 1385 1383 1380 1378 1377 1376 1375 1373 1371 1369 1367 1365 1364 1363 1362 1360 1359 1357 1355 1354 1353 1351 1350 1349 1348 1347 1347 1346 1345 1344 1344 1343 1342
1488 1487 1486 1485 1484 1483 1482 1481 1479 1478 1477 1475 1473 1471 1470 1468 1466 1464 1463 1461 1459 1457 1455 1453 1451 1449 1447 1445 1444 1442 1440 1438 1436 1434 1431 1429 1427 1424 1422 1420 1417 1415 1412 1410 1407 1403 1399 1397 1395 1394 1392 1389 1387 1385 1382 1380 1379 1377 1376 1375 1374 1373 1370 1368 1365 1364 1362 1361 1359 1358 1357 1355 1354 1352 1351 1350 1349 1348 1347 1346 1346 1345 1344 1343 1343 1342
1488 1487 1486 1485 1484 1483 1482 1480 1479 1478 1476 1474 1473 1471 1469 1468 1466 1464 1462 1460 1458 1456 1454 1452 1450 1448 1445 1444 1442 1440 1438 1436 1434 1432 1430 1428 1426 1423 1421 1419 1416 1414 1411 1409 1406 1403 1399 1396 1394 1391 1390 1388 1386 1384 1382 1380 1379 1378 1377 1375 1374 1373 1370 1368 1366 1364 1362 1360 1359 1358 1356 1355 1353 1352 1350 1349 1349 1348 1347 1346 1345 1344 1344 1343 1342 1342
1488 1487 1486 1485 1484 1483 1482 1480 1479 1478 1476 1474 1472 1471 1469 1467 1466 1464 1462 1460 1458 1456 1454 1452 1450 1447 1445 1442 1440 1438 1435 1434 1432 1430 1428 1426 1424 1421 1419 1417 1414 1412 1409 1407 1404 1402 1399 1396 1393 1390 1388 1386 1385 1384 1383 1381 1380 1378 1376 1375 1373 1371 1369 1367 1366 1364 1363 1361 1359 1358 1356 1354 1353 1352 1350 1349 1348 1347 1347 1346 1345 1344 1344 1343 1342 1341
1487 1486 1485 1484 1484 1483 1481 1480 1479 1477 1476 1474 1472 1471 1469 1467 1465 1464 1462 1460 1458 1456 1454 1452 1449 1447 1445 1442 1440 1437 1434 1432 1430 1428 1426 1424 1421 1419 1417 1414 1412 1410 1408 1405 1402 1400 1398 1395 1392 1390 1388 1385 1384 1383 1382 1381 1380 1379 1377 1375 1373 1371 1369 1367 1365 1364 1362 1361 1359 1357 1356 1354 1353 1351 1350 1349 1348 1347 1346 1346 1345 1344 1344 1343 1342 1341
1487 1486 1485 1484 1484 1482 1481 1480 1479 1477 1475 1474 1472 1471 1469 1467 1465 1464 1462 1460 1458 1456 1454 1451 1449 1447 1445 1442 1440 1438 1435 1432 1429 1427 1424 1422 1420 1418 1415 1413 1410 1408 1405 1403 1400 1398 1396 1394 1392 1389 1388 1386 1384 1383 1382 1381 1381 1379 1377 1375 1373 1370 1369 1366 1365 1363 1362 1360 1359 1357 1356 1354 1353 1351 1350 1349 1348 1347 1346 1346 1345 1344 1344 1343 1342 1341
1487 1486 1485 1484 1483 1482 1481 1480 1478 1477 1475 1474 1472 1470 1469 1467 1466 1464 1462 1459 1458 1456 1454 1451 1449 1447 1444 1442 1440 1437 1435 1432 1429 1427 1424 1421 1419 1416 1414 1411 1409 1406 1403 1401 1399 1396 1395 1393 1392 1390 1388 1387 1386 1384 1383 1382 1380 1379 1377 1375 1373 1371 1369 1366 1364 1363 1361 1360 1359 1357 1356 1355 1354 1352 1350 1349 1348 1347 1346 1345 1345 1344 1344 1343 1342 1341
1487 1486 1485 1484 1483 1482 1481 1479 1478 1476 1475 1473 1472 1470 1469 1467 1465 1464 1462 1460 1458 1456 1454 1452 1449 1446 1444 1442 1439 1437 1434 1432 1429 1426 1424 1421 1418 1416 1413 1410 1407 1404 1401 1399 1396 1395 1393 1392 1391 1390 1389 1388 1387 1385 1383 1381 1379 1377 1376 1374 1373 1371 1369 1367 1364 1363 1361 1360 1358 1357 1356 1354 1353 1352 1351 1350 1349 1347 1346 1345 1345 1344 1344 1343 1342 1341
1487 1486 1485 1484 1483 1482 1481 1479 1478 1476 1474 1473 1471 1470 1468 1467 1465 1464 1462 1460 1458 1456 1454 1452 1449 1447 1444 1442 1439 1437 1434 1432 1429 1426 1424 1421 1418 1415 1412 1409 1406 1403 1400 1397 1395 1393 1391 1390 1389 1389 1389 1389 1387 1385 1383 1381 1378 1376 1374 1373 1372 1370 1369 1367 1365 1363 1361 1360 1358 1357 1355 1354 1353 1353 1352 1350 1349 1348 1346 1345 1344 1344 1344 1343 1342 1341